Location: Casco Volunteer Fire Department
(44.5576°N, 87.6146°W)
Time: 06:06:50
(UTC+00:00)

Cosmos 1821 Rocket - Pass Details

Date: 22 January 2026
Orbit: 944 x 1004 km, 82.9° (Epoch: 7 February)

Event Time Altitude Azimuth Distance (km) Brightness Sun altitude
Rises 23:07:07 0° 352° (N) 3,657 6.8 -4.3°
Reaches altitude 10° 23:09:39 10° 353° (N) 2,699 6.2 -4.7°
Maximum altitude 23:15:50 85° 83° (E) 959 4.0 -5.7°
Drops below altitude 10° 23:21:54 10° 172° (S) 2,656 6.5 -6.7°
Sets 23:24:22 0° 172° (S) 3,595 7.1 -7.1°
